Location: Brabourne
(51.1333°N, 1.0000°E)
Time: 10:53:23
(UTC+00:00)

Cosmos 1825 Rocket - Pass Details

Date: 23 October 2021
Orbit: 603 x 631 km, 82.5° (Epoch: 26 November)

Event Time Altitude Azimuth Distance (km) Brightness Sun altitude
Rises 17:49:22 0° 0° (N) 2,881 6.9 -10.5°
Reaches altitude 10° 17:52:12 10° 19° (NNE) 1,967 5.9 -10.9°
Maximum altitude 17:55:16 19° 64° (ENE) 1,480 4.9 -11.4°
Enters shadow 17:56:27 17° 85° (E) 1,559 4.9 -11.6°
